Location: Poughquag
(41.6090°N, 73.6820°W)
Time: 15:33:01
(UTC-05:00)

Envisat - Pass Details

Date: 17 January 2020
Orbit: 764 x 766 km, 98.1° (Epoch: 24 February)

Event Time Altitude Azimuth Distance (km) Brightness Sun altitude
Rises 17:24:25 0° 155° (SSE) 3,219 6.2 -6.4°
Reaches altitude 10° 17:26:44 10° 152° (SSE) 2,297 5.4 -6.8°
Maximum altitude 17:31:42 61° 73° (ENE) 869 3.0 -7.7°
Drops below altitude 10° 17:36:43 10° 354° (N) 2,312 5.3 -8.6°
Sets 17:39:03 0° 351° (N) 3,243 6.1 -9.0°
